Regional Weather Roundup
Issued by NWS Jackson, KY

Home | Current Version | Previous Version | Text Only | Print | Product List | Glossary On
Versions: 1 2 3 4 5 6 7 8 9 10 11 12 13 14 15 16 17 18 19 20 21 22 23 24 25 26 27 28 29 30 31 32 33 34 35 36 37 38 39 40 41 42 43 44 45 46 47 48 49 50
000
ASUS43 KJKL 251510
RWRJKL

EAST KENTUCKY HOURLY WEATHER ROUNDUP
NATIONAL WEATHER SERVICE JACKSON KY
1100 AM EDT SAT MAY 25 2019

NOTE: "FAIR" INDICATES FEW OR NO CLOUDS BELOW 12,000 FEET WITH
NO SIGNIFICANT WEATHER AND/OR OBSTRUCTIONS TO VISIBILITY.

* THESE REPORTS ARE NOT UNDER NWS QUALITY CONTROL AND MAY NOT
  REPORT WEATHER SUCH AS PRECIPITATION AND FOG.

KYZ079-080-083-085-087-088-110-112-115-119-120-251600
...EASTERN KENTUCKY...

CITY           SKY/WX    TMP DP  RH WIND       PRES   REMARKS
JACKSON          N/A     82  71  69 CALM      30.18S
LONDON           N/A     82  70  66 SW12G21   30.19R
SOMERSET*        N/A     81  66  61 SW9       30.18F
MONTICELLO*      N/A     86  70  58 W23       30.19S HX  90
WILLIAMSBURG*    N/A     82  68  61 W6        30.19S
MIDDLESBORO*     N/A     83  67  57 W8        30.21S
HARLAN APT*      N/A     78  67  68 W5        30.22S
PIKE CO APT*     N/A     81  69  66 SW3       30.19S
BIG SANDY APT*   N/A     82  69  64 W7        30.17S
MOREHEAD APT*    N/A     81  70  69 SW7       30.15F
ASHLAND*       LGT RAIN  77  70  79 SW6       30.11F
$$

KYZ035-036-041-042-044-050-067-078-099-251600
...CENTRAL KENTUCKY...

CITY           SKY/WX    TMP DP  RH WIND       PRES   REMARKS
MT STERLING*     N/A     82  70  65 W9G16     30.15F
FLEMING/MASON*   N/A     80  70  71 W12       30.13S
DANVILLE*        N/A     84  68  58 W7        30.16F
LEXINGTON        N/A     84  67  56 SW10      30.13F
FRANKFORT        N/A     83  70  64 SW13G20   30.10F
LOUISVILLE     PTSUNNY   83  67  58 SW14      30.08F
LEBANON*         N/A     84  72  65 SW7       30.14S
GLASGOW*         N/A     83  66  56 W12       30.15S
BOWLING GREEN    N/A     86  65  49 SW9       30.13F
$$

KYZ091>093-OHZ055-061-077-WVZ005-015-034-035-042-251600
...SOUTHERN OHIO/WEST VIRGINIA...

CITY           SKY/WX    TMP DP  RH WIND       PRES   REMARKS
COVINGTON      PTSUNNY   81  67  62 SW12G21   30.07F
COLUMBUS       CLOUDY    78  66  66 S10       30.07S
DAYTON           N/A     83  67  58 SW14      30.05F
WILMINGTON       N/A     78  70  76 SW14      30.07F
HUNTINGTON       N/A     81  69  67 SW7       30.12S
CHARLESTON     PTSUNNY   77  70  79 S6        30.13S
PINEVILLE*     PTSUNNY   78  67  69 MISG      30.26R
BECKLEY        PTSUNNY   75  65  70 W3        30.24F
BLUEFIELD        N/A     76  62  62 W7        30.28S
LOGAN CO APT*    N/A     79  68  69 S3        30.18S
$$

VAZ002-007-008-TNZ017-027-036-066-071-251600
...SOUTHWEST VIRGINIA/EAST TENNESSEE...

CITY           SKY/WX    TMP DP  RH WIND       PRES   REMARKS
WISE*            N/A     79  66  65 W10       30.28S
JONESVILLE*      N/A     81  68  65 SW7       30.23F
ABINGDON*        N/A     78  65  63 W7        30.26R
BRISTOL          N/A     79  65  62 VRB3      30.23S
MORRISTOWN*    MOSUNNY   82  68  61 VRB7      30.20F
SEVIERVILLE*   MOSUNNY   86  68  54 W6        30.19S
KNOXVILLE        N/A     83  66  56 SW10      30.20R
LAFOLLETTE*    PTSUNNY   84  66  54 VRB6      30.22F
OAK RIDGE        N/A     83  68  60 VRB3      30.20S
CROSSVILLE       N/A     79  64  60 W13       30.25S
NASHVILLE      PTSUNNY   86  64  47 SW9       30.16S
$$

...KEY TO REMARKS...
VSB - VISIBILITY IN MILES
WCI - WIND CHILL INDEX
HX  - HEAT INDEX

$$



USA.gov is the U.S. government's official web portal to all federal, state and local government web resources and services.